QPF
0.06 0.08 0.08 0.06 0.05 0.04 0.05 0.06 0.08 0.07 0.06 0.05 0.03 0.02 0.02 0.03 0.03 0.03 0.03 0.03 0.02 0.02 0.02 0.02 0.02 0.02 0.02 0.02 0.02 0.02 0.01 0.01 0.01 0.01 0.01 0.00 0.00 0.00
0.06 0.07 0.08 0.07 0.06 0.04 0.05 0.05 0.07 0.08 0.09 0.05 0.04 0.03 0.02 0.02 0.03 0.03 0.03 0.02 0.01 0.01 0.02 0.02 0.02 0.02 0.02 0.02 0.02 0.01 0.01 0.01 0.01 0.01 0.01 0.00 0.00 0.00
0.08 0.06 0.07 0.07 0.06 0.05 0.05 0.06 0.07 0.09 0.11 0.07 0.06 0.05 0.03 0.03 0.04 0.03 0.02 0.02 0.02 0.02 0.02 0.03 0.02 0.02 0.02 0.02 0.02 0.02 0.02 0.02 0.02 0.02 0.01 0.01 0.01 0.01
0.09 0.08 0.07 0.07 0.07 0.06 0.06 0.05 0.07 0.11 0.13 0.12 0.09 0.07 0.06 0.05 0.05 0.04 0.03 0.02 0.02 0.03 0.03 0.03 0.02 0.02 0.02 0.03 0.03 0.04 0.03 0.03 0.04 0.04 0.04 0.04 0.03 0.02
0.09 0.09 0.10 0.12 0.11 0.09 0.08 0.07 0.08 0.10 0.13 0.13 0.12 0.10 0.08 0.07 0.08 0.07 0.06 0.06 0.05 0.04 0.04 0.04 0.05 0.05 0.04 0.04 0.05 0.05 0.05 0.05 0.04 0.04 0.04 0.03 0.03 0.02
0.12 0.12 0.13 0.14 0.15 0.15 0.13 0.12 0.11 0.12 0.13 0.12 0.11 0.10 0.10 0.10 0.11 0.11 0.11 0.10 0.09 0.07 0.07 0.07 0.08 0.07 0.06 0.06 0.05 0.05 0.05 0.04 0.03 0.03 0.03 0.03 0.02 0.02
0.12 0.12 0.10 0.10 0.12 0.15 0.15 0.14 0.14 0.14 0.13 0.12 0.12 0.13 0.13 0.13 0.13 0.12 0.12 0.11 0.09 0.08 0.07 0.06 0.06 0.05 0.05 0.06 0.06 0.05 0.04 0.04 0.03 0.03 0.03 0.03 0.03 0.02
0.14 0.13 0.12 0.12 0.12 0.14 0.15 0.16 0.16 0.16 0.17 0.17 0.15 0.14 0.13 0.12 0.12 0.12 0.12 0.11 0.09 0.08 0.07 0.08 0.08 0.07 0.07 0.07 0.08 0.08 0.07 0.06 0.06 0.05 0.04 0.02 0.02 0.01
0.13 0.13 0.11 0.10 0.11 0.10 0.11 0.13 0.13 0.14 0.14 0.14 0.14 0.14 0.13 0.11 0.09 0.09 0.09 0.08 0.08 0.08 0.08 0.09 0.09 0.09 0.10 0.11 0.12 0.10 0.08 0.07 0.07 0.06 0.05 0.04 0.03 0.02
0.10 0.11 0.11 0.11 0.11 0.11 0.11 0.11 0.11 0.11 0.10 0.08 0.08 0.08 0.09 0.09 0.08 0.08 0.07 0.07 0.07 0.06 0.06 0.07 0.09 0.09 0.09 0.08 0.08 0.07 0.06 0.06 0.06 0.06 0.06 0.05 0.04 0.04
0.11 0.12 0.14 0.15 0.17 0.16 0.13 0.12 0.11 0.09 0.08 0.07 0.06 0.06 0.06 0.06 0.06 0.06 0.05 0.05 0.06 0.06 0.07 0.07 0.08 0.07 0.06 0.06 0.05 0.05 0.05 0.05 0.05 0.05 0.05 0.05 0.04 0.04
0.09 0.10 0.12 0.12 0.16 0.17 0.14 0.14 0.13 0.11 0.09 0.08 0.07 0.07 0.06 0.06 0.06 0.06 0.06 0.06 0.07 0.07 0.07 0.07 0.07 0.06 0.06 0.06 0.05 0.05 0.04 0.05 0.04 0.04 0.04 0.04 0.04 0.04
0.05 0.06 0.08 0.10 0.10 0.12 0.13 0.13 0.14 0.12 0.10 0.09 0.08 0.08 0.07 0.06 0.05 0.05 0.04 0.05 0.06 0.07 0.06 0.06 0.07 0.07 0.07 0.07 0.06 0.05 0.04 0.04 0.03 0.03 0.02 0.02 0.02 0.01
0.06 0.06 0.07 0.09 0.09 0.09 0.10 0.11 0.10 0.09 0.07 0.07 0.07 0.06 0.06 0.05 0.05 0.04 0.04 0.05 0.05 0.05 0.05 0.05 0.05 0.05 0.05 0.05 0.04 0.03 0.03 0.02 0.01 0.01 0.01 0.01 0.01 0.01
0.05 0.06 0.07 0.07 0.06 0.05 0.05 0.06 0.05 0.05 0.05 0.06 0.05 0.05 0.04 0.03 0.02 0.02 0.02 0.02 0.02 0.02 0.02 0.02 0.02 0.02 0.02 0.02 0.02 0.01 0.01 0.00 0.00 0.00 0.00 0.01 0.01 0.01
0.05 0.06 0.06 0.05 0.06 0.05 0.06 0.06 0.05 0.05 0.05 0.04 0.04 0.04 0.03 0.02 0.02 0.01 0.01 0.01 0.01 0.00 0.00 0.00 0.01 0.01 0.01 0.01 0.01 0.01 0.00 0.00 0.00 0.00 0.00 0.01 0.01 0.01
0.04 0.05 0.05 0.05 0.06 0.07 0.07 0.06 0.06 0.05 0.06 0.06 0.06 0.05 0.04 0.03 0.02 0.01 0.01 0.00 0.00 0.00 0.00 0.00 0.00 0.00 0.00 0.00 0.00 0.00 0.00 0.00 0.00 0.01 0.01 0.01 0.01 0.01
0.06 0.06 0.06 0.07 0.07 0.07 0.06 0.06 0.06 0.08 0.08 0.08 0.06 0.05 0.03 0.03 0.02 0.01 0.01 0.00 0.00 0.00 0.00 0.00 0.00 0.00 0.00 0.00 0.00 0.00 0.00 0.00 0.00 0.01 0.01 0.01 0.01 0.01
0.04 0.04 0.06 0.07 0.07 0.07 0.06 0.06 0.07 0.07 0.06 0.05 0.04 0.03 0.03 0.02 0.02 0.01 0.01 0.00 0.00 0.00 0.00 0.00 0.00 0.00 0.00 0.00 0.00 0.00 0.00 0.00 0.00 0.00 0.00 0.01 0.01 0.01
0.03 0.04 0.04 0.05 0.05 0.05 0.05 0.04 0.04 0.04 0.03 0.03 0.02 0.02 0.02 0.02 0.01 0.01 0.00 0.00 0.00 0.00 0.00 0.00 0.00 0.00 0.00 0.00 0.00 0.00 0.00 0.00 0.00 0.01 0.01 0.01 0.01 0.01
0.04 0.04 0.05 0.05 0.06 0.06 0.06 0.05 0.05 0.04 0.03 0.03 0.02 0.01 0.01 0.01 0.00 0.00 0.00 0.00 0.00 0.00 0.00 0.00 0.00 0.00 0.00 0.00 0.00 0.00 0.00 0.00 0.00 0.00 0.01 0.01 0.02 0.01
0.08 0.08 0.07 0.07 0.08 0.08 0.08 0.07 0.06 0.04 0.03 0.02 0.01 0.01 0.01 0.01 0.00 0.00 0.00 0.00 0.00 0.00 0.00 0.00 0.00 0.00 0.00 0.00 0.00 0.00 0.00 0.00 0.00 0.00 0.00 0.00 0.01 0.01
0.11 0.11 0.11 0.10 0.09 0.08 0.07 0.06 0.04 0.03 0.02 0.02 0.01 0.01 0.01 0.00 0.00 0.00 0.00 0.00 0.00 0.00 0.00 0.00 0.00 0.00 0.00 0.00 0.00 0.00 0.00 0.00 0.00 0.00 0.00 0.00 0.00 0.00
MSLP
1016.08 1016.29 1016.55 1016.84 1017.13 1017.40 1017.62 1017.80 1017.91 1017.98 1018.03 1018.06 1018.12 1018.22 1018.37 1018.60 1018.90 1019.27 1019.69 1020.15 1020.62 1021.11 1021.59 1022.06 1022.50 1022.92 1023.31 1023.67 1023.98 1024.26 1024.50 1024.69 1024.83 1024.93 1024.99 1025.00 1024.97 1024.90
1015.04 1015.25 1015.54 1015.88 1016.25 1016.63 1016.98 1017.30 1017.57 1017.79 1017.97 1018.14 1018.31 1018.50 1018.73 1019.01 1019.35 1019.74 1020.17 1020.63 1021.11 1021.59 1022.08 1022.55 1023.00 1023.43 1023.83 1024.20 1024.53 1024.82 1025.06 1025.25 1025.39 1025.48 1025.52 1025.51 1025.45 1025.35
1013.88 1014.08 1014.38 1014.76 1015.21 1015.70 1016.19 1016.67 1017.11 1017.52 1017.88 1018.23 1018.56 1018.89 1019.24 1019.62 1020.02 1020.45 1020.91 1021.38 1021.86 1022.34 1022.81 1023.26 1023.70 1024.11 1024.50 1024.86 1025.18 1025.45 1025.67 1025.84 1025.95 1026.00 1026.00 1025.95 1025.85 1025.71
1012.71 1012.88 1013.18 1013.59 1014.10 1014.69 1015.31 1015.95 1016.58 1017.18 1017.76 1018.31 1018.83 1019.34 1019.84 1020.34 1020.84 1021.34 1021.83 1022.32 1022.80 1023.26 1023.70 1024.12 1024.52 1024.90 1025.26 1025.58 1025.86 1026.09 1026.27 1026.40 1026.47 1026.48 1026.43 1026.33 1026.19 1026.01
1011.67 1011.80 1012.08 1012.51 1013.07 1013.74 1014.48 1015.26 1016.06 1016.85 1017.63 1018.38 1019.11 1019.80 1020.47 1021.10 1021.71 1022.28 1022.82 1023.32 1023.79 1024.23 1024.63 1025.01 1025.36 1025.69 1025.99 1026.26 1026.49 1026.68 1026.81 1026.89 1026.91 1026.87 1026.78 1026.63 1026.45 1026.24
1010.91 1011.00 1011.27 1011.70 1012.29 1013.01 1013.83 1014.72 1015.65 1016.60 1017.55 1018.48 1019.38 1020.25 1021.06 1021.82 1022.53 1023.17 1023.74 1024.25 1024.71 1025.11 1025.47 1025.79 1026.08 1026.35 1026.59 1026.81 1026.99 1027.13 1027.22 1027.25 1027.24 1027.16 1027.03 1026.86 1026.65 1026.41
1010.57 1010.64 1010.89 1011.32 1011.91 1012.65 1013.50 1014.45 1015.47 1016.52 1017.58 1018.64 1019.67 1020.66 1021.58 1022.44 1023.21 1023.89 1024.48 1024.99 1025.42 1025.77 1026.08 1026.34 1026.58 1026.79 1026.97 1027.14 1027.27 1027.38 1027.43 1027.44 1027.40 1027.31 1027.16 1026.97 1026.75 1026.51
1010.72 1010.79 1011.04 1011.45 1012.03 1012.76 1013.62 1014.57 1015.60 1016.69 1017.80 1018.91 1020.00 1021.04 1022.02 1022.91 1023.70 1024.39 1024.97 1025.45 1025.84 1026.15 1026.40 1026.60 1026.78 1026.94 1027.08 1027.21 1027.31 1027.39 1027.43 1027.43 1027.38 1027.29 1027.14 1026.96 1026.74 1026.51
1011.38 1011.48 1011.73 1012.13 1012.69 1013.38 1014.19 1015.10 1016.09 1017.14 1018.22 1019.31 1020.38 1021.40 1022.36 1023.23 1024.00 1024.65 1025.19 1025.63 1025.96 1026.21 1026.41 1026.56 1026.69 1026.81 1026.92 1027.02 1027.11 1027.18 1027.22 1027.22 1027.18 1027.10 1026.96 1026.79 1026.59 1026.37
1012.49 1012.63 1012.90 1013.30 1013.82 1014.45 1015.19 1016.02 1016.91 1017.86 1018.84 1019.84 1020.82 1021.76 1022.64 1023.43 1024.13 1024.71 1025.19 1025.56 1025.83 1026.03 1026.18 1026.29 1026.38 1026.47 1026.56 1026.65 1026.74 1026.81 1026.85 1026.86 1026.83 1026.76 1026.64 1026.48 1026.29 1026.08
1013.90 1014.10 1014.40 1014.79 1015.28 1015.85 1016.49 1017.20 1017.97 1018.78 1019.62 1020.47 1021.31 1022.12 1022.87 1023.55 1024.14 1024.64 1025.03 1025.34 1025.55 1025.71 1025.82 1025.90 1025.97 1026.05 1026.13 1026.21 1026.29 1026.36 1026.41 1026.42 1026.39 1026.32 1026.21 1026.06 1025.88 1025.68
1015.45 1015.70 1016.03 1016.42 1016.87 1017.37 1017.91 1018.50 1019.13 1019.78 1020.46 1021.14 1021.82 1022.47 1023.08 1023.64 1024.12 1024.52 1024.84 1025.08 1025.25 1025.37 1025.45 1025.52 1025.58 1025.65 1025.73 1025.80 1025.88 1025.94 1025.98 1025.98 1025.95 1025.87 1025.75 1025.59 1025.41 1025.21
1016.96 1017.26 1017.61 1017.99 1018.40 1018.83 1019.28 1019.76 1020.24 1020.75 1021.27 1021.79 1022.31 1022.82 1023.29 1023.73 1024.11 1024.42 1024.68 1024.87 1025.02 1025.12 1025.20 1025.26 1025.33 1025.39 1025.46 1025.53 1025.59 1025.63 1025.64 1025.62 1025.56 1025.45 1025.31 1025.14 1024.94 1024.73
1018.30 1018.62 1018.97 1019.33 1019.70 1020.08 1020.45 1020.82 1021.20 1021.58 1021.96 1022.36 1022.75 1023.13 1023.49 1023.83 1024.14 1024.40 1024.61 1024.78 1024.92 1025.02 1025.11 1025.18 1025.25 1025.31 1025.37 1025.42 1025.45 1025.46 1025.43 1025.37 1025.27 1025.13 1024.95 1024.75 1024.54 1024.32
1019.37 1019.68 1020.01 1020.34 1020.68 1021.00 1021.31 1021.61 1021.91 1022.20 1022.49 1022.79 1023.09 1023.39 1023.68 1023.96 1024.22 1024.45 1024.65 1024.82 1024.97 1025.09 1025.18 1025.27 1025.34 1025.39 1025.44 1025.46 1025.45 1025.42 1025.35 1025.23 1025.09 1024.91 1024.70 1024.48 1024.25 1024.02
1020.13 1020.41 1020.70 1020.99 1021.28 1021.57 1021.84 1022.10 1022.34 1022.59 1022.83 1023.08 1023.33 1023.59 1023.84 1024.10 1024.34 1024.57 1024.78 1024.96 1025.13 1025.26 1025.38 1025.47 1025.54 1025.59 1025.61 1025.60 1025.55 1025.47 1025.34 1025.19 1024.99 1024.77 1024.54 1024.30 1024.06 1023.83
1020.59 1020.81 1021.05 1021.30 1021.56 1021.82 1022.07 1022.31 1022.54 1022.77 1023.01 1023.24 1023.48 1023.73 1023.98 1024.23 1024.48 1024.72 1024.95 1025.15 1025.33 1025.49 1025.62 1025.72 1025.78 1025.81 1025.80 1025.76 1025.67 1025.54 1025.37 1025.16 1024.93 1024.69 1024.43 1024.18 1023.95 1023.73
1020.81 1020.96 1021.15 1021.37 1021.60 1021.84 1022.09 1022.34 1022.58 1022.83 1023.07 1023.32 1023.58 1023.83 1024.10 1024.36 1024.62 1024.88 1025.11 1025.34 1025.53 1025.69 1025.83 1025.92 1025.97 1025.98 1025.94 1025.86 1025.73 1025.56 1025.35 1025.11 1024.86 1024.59 1024.33 1024.08 1023.84 1023.64
1020.88 1020.97 1021.11 1021.30 1021.52 1021.77 1022.03 1022.30 1022.57 1022.84 1023.12 1023.39 1023.66 1023.94 1024.21 1024.48 1024.75 1025.01 1025.25 1025.47 1025.67 1025.83 1025.95 1026.03 1026.06 1026.04 1025.97 1025.86 1025.69 1025.49 1025.25 1024.99 1024.72 1024.44 1024.17 1023.92 1023.69 1023.49
1020.88 1020.93 1021.05 1021.22 1021.45 1021.71 1021.99 1022.29 1022.60 1022.91 1023.21 1023.50 1023.79 1024.07 1024.34 1024.61 1024.87 1025.11 1025.34 1025.55 1025.73 1025.87 1025.97 1026.03 1026.04 1025.99 1025.90 1025.75 1025.56 1025.32 1025.06 1024.78 1024.49 1024.20 1023.92 1023.67 1023.43 1023.22
1020.89 1020.93 1021.04 1021.22 1021.46 1021.75 1022.07 1022.40 1022.74 1023.07 1023.40 1023.70 1023.99 1024.26 1024.52 1024.76 1024.99 1025.21 1025.40 1025.58 1025.73 1025.85 1025.92 1025.95 1025.94 1025.86 1025.74 1025.57 1025.35 1025.09 1024.80 1024.50 1024.19 1023.88 1023.58 1023.31 1023.05 1022.82
1020.96 1021.01 1021.14 1021.35 1021.62 1021.95 1022.30 1022.66 1023.03 1023.38 1023.70 1024.00 1024.27 1024.52 1024.74 1024.94 1025.13 1025.29 1025.45 1025.59 1025.70 1025.78 1025.83 1025.83 1025.79 1025.69 1025.55 1025.35 1025.10 1024.82 1024.51 1024.17 1023.83 1023.49 1023.16 1022.85 1022.55 1022.28
1021.10 1021.18 1021.36 1021.61 1021.92 1022.28 1022.67 1023.06 1023.44 1023.79 1024.11 1024.38 1024.62 1024.83 1025.00 1025.15 1025.28 1025.39 1025.50 1025.59 1025.66 1025.71 1025.73 1025.70 1025.64 1025.52 1025.35 1025.13 1024.86 1024.55 1024.20 1023.84 1023.46 1023.07 1022.70 1022.33 1021.98 1021.65
Thickness
5731 5729 5728 5729 5729 5729 5727 5724 5716 5710 5709 5711 5711 5710 5707 5703 5699 5697 5694 5690 5687 5685 5682 5679 5676 5673 5671 5668 5665 5663 5660 5657 5655 5653 5651 5648 5646 5644
5727 5726 5725 5725 5725 5724 5723 5721 5718 5712 5706 5707 5705 5704 5700 5697 5692 5689 5686 5683 5679 5677 5674 5671 5669 5666 5663 5661 5658 5655 5652 5649 5646 5643 5641 5639 5637 5635
5724 5722 5721 5720 5720 5720 5719 5716 5713 5709 5701 5701 5698 5695 5691 5688 5685 5682 5679 5676 5672 5668 5666 5663 5660 5657 5655 5652 5649 5645 5642 5639 5636 5633 5630 5628 5625 5623
5719 5717 5716 5716 5713 5713 5712 5710 5707 5704 5699 5693 5690 5686 5682 5680 5677 5674 5672 5669 5665 5660 5657 5654 5650 5647 5645 5642 5639 5635 5632 5629 5625 5622 5619 5616 5614 5611
5715 5713 5711 5710 5708 5707 5705 5703 5701 5699 5694 5689 5683 5679 5675 5672 5668 5666 5663 5659 5656 5651 5647 5644 5640 5637 5634 5631 5627 5624 5621 5617 5614 5610 5607 5604 5601 5598
5710 5708 5706 5705 5703 5701 5699 5696 5693 5690 5687 5682 5677 5672 5667 5664 5660 5657 5653 5649 5646 5642 5638 5633 5629 5626 5623 5620 5616 5613 5609 5605 5601 5598 5594 5591 5588 5584
5704 5702 5700 5698 5697 5695 5694 5690 5687 5683 5680 5675 5670 5665 5661 5656 5653 5650 5645 5641 5635 5632 5629 5624 5620 5617 5613 5608 5604 5600 5597 5593 5589 5584 5581 5577 5573 5570
5696 5695 5693 5691 5689 5686 5684 5681 5679 5676 5672 5668 5664 5658 5653 5650 5646 5643 5638 5633 5627 5622 5619 5614 5610 5605 5601 5597 5591 5587 5583 5579 5575 5571 5566 5562 5559 5555
5690 5688 5686 5684 5682 5679 5674 5670 5667 5664 5662 5660 5656 5652 5647 5642 5639 5635 5629 5625 5618 5611 5607 5602 5598 5594 5588 5582 5577 5573 5569 5565 5561 5556 5552 5549 5545 5542
5683 5681 5678 5675 5673 5670 5667 5662 5657 5653 5651 5648 5646 5642 5638 5634 5631 5626 5619 5612 5605 5600 5596 5593 5587 5583 5577 5571 5564 5560 5556 5552 5548 5543 5539 5535 5532 5530
5674 5671 5670 5667 5663 5661 5658 5653 5647 5641 5636 5634 5631 5627 5624 5621 5618 5616 5609 5606 5598 5590 5585 5582 5576 5571 5567 5562 5555 5549 5545 5541 5536 5532 5527 5523 5520 5518
5666 5662 5658 5656 5653 5651 5649 5644 5638 5631 5627 5623 5618 5614 5611 5607 5604 5602 5600 5596 5591 5582 5574 5570 5566 5562 5558 5552 5546 5540 5536 5531 5527 5522 5517 5513 5509 5507
5659 5654 5649 5645 5642 5640 5638 5634 5628 5623 5619 5615 5610 5605 5600 5595 5592 5588 5585 5583 5579 5573 5564 5559 5556 5552 5548 5543 5537 5531 5526 5522 5518 5514 5510 5504 5499 5494
5650 5645 5638 5634 5631 5628 5625 5620 5616 5613 5611 5606 5601 5595 5590 5584 5579 5574 5569 5565 5561 5557 5551 5547 5544 5539 5537 5533 5528 5523 5518 5513 5509 5506 5501 5496 5492 5486
5639 5632 5627 5623 5619 5616 5611 5608 5606 5605 5601 5596 5590 5583 5578 5572 5567 5562 5556 5552 5548 5544 5539 5534 5532 5528 5525 5523 5519 5514 5511 5506 5502 5497 5492 5488 5484 5479
5627 5620 5616 5612 5610 5605 5600 5598 5595 5592 5588 5583 5578 5572 5567 5562 5558 5554 5549 5545 5541 5535 5528 5523 5519 5516 5515 5511 5509 5506 5502 5498 5494 5488 5483 5480 5477 5473
5619 5615 5611 5607 5603 5598 5593 5589 5585 5581 5576 5572 5567 5562 5557 5552 5547 5543 5538 5536 5533 5528 5523 5516 5511 5507 5503 5501 5500 5497 5493 5490 5486 5480 5474 5474 5471 5467
5611 5608 5603 5599 5595 5590 5585 5580 5575 5570 5565 5560 5556 5551 5546 5542 5537 5532 5528 5526 5522 5518 5514 5510 5506 5503 5500 5496 5487 5487 5485 5482 5478 5473 5470 5469 5466 5461
5602 5598 5593 5589 5585 5580 5575 5570 5564 5558 5553 5550 5545 5541 5536 5531 5527 5523 5519 5516 5513 5509 5505 5501 5498 5496 5495 5493 5484 5476 5475 5473 5471 5469 5466 5463 5460 5457
5593 5589 5584 5579 5574 5569 5564 5559 5553 5548 5543 5539 5534 5530 5526 5522 5518 5514 5510 5506 5504 5501 5498 5494 5490 5486 5484 5481 5479 5475 5468 5467 5464 5462 5460 5457 5455 5451
5582 5577 5573 5568 5563 5557 5552 5547 5542 5537 5532 5528 5524 5519 5516 5513 5509 5506 5502 5493 5494 5494 5491 5487 5480 5473 5473 5473 5474 5473 5469 5462 5458 5455 5454 5453 5452 5450
5570 5566 5561 5556 5551 5546 5541 5537 5532 5527 5522 5519 5515 5511 5508 5505 5501 5497 5495 5492 5489 5487 5484 5481 5474 5472 5472 5470 5470 5469 5466 5462 5458 5453 5449 5446 5444 5443
5559 5555 5550 5545 5541 5536 5532 5527 5523 5519 5515 5511 5507 5504 5501 5497 5494 5491 5489 5486 5483 5480 5478 5476 5473 5470 5469 5467 5466 5465 5462 5461 5459 5456 5453 5446 5441 5438